Location: Ohmer (historical)
(38.0096°N, 122.0227°W)
Time: 02:05:33
(UTC+00:00)

Cosmos 1400 Rocket - Pass Details

Date: 14 February 2026
Orbit: 474 x 509 km, 81.1° (Epoch: 13 March)

Event Time Altitude Azimuth Distance (km) Brightness Sun altitude
Rises 13:37:14 0° 190° (S) 2,590 6.2 -16.7°
Reaches altitude 10° 13:39:21 10° 192° (SSW) 1,715 5.3 -16.3°
Maximum altitude 13:43:07 79° 278° (W) 523 2.5 -15.5°
Drops below altitude 10° 13:46:56 10° 6° (N) 1,738 5.4 -14.8°
Sets 13:49:05 0° 8° (N) 2,629 6.3 -14.4°
